| time (UTC) | temp C | wind direction | speed KPH | gust KPH | rain 1hr cm | rain 24hr cm | rain mn cm | humidity % | barometer mb |
| 20260506124534 | 10 | 23 | 4.8 | 9.7 | 0.00 | 0.00 | 0.00 | 90 | 1014.3 |
| 20260506124034 | 10 | 19 | 3.2 | 8.0 | 0.00 | 0.00 | 0.00 | 90 | 1014.2 |
| 20260506123531 | 10 | 21 | 3.2 | 9.7 | 0.00 | 0.00 | 0.00 | 90 | 1014.1 |
| 20260506123114 | 10 | 26 | 4.8 | 9.7 | 0.00 | 0.00 | 0.00 | 89 | 1014.1 |
| 20260506122554 | 10 | 34 | 4.8 | 9.7 | 0.00 | 0.00 | 0.00 | 89 | 1014.4 |
| 20260506122055 | 10 | 23 | 4.8 | 11.3 | 0.00 | 0.00 | 0.00 | 89 | 1014.2 |
| 20260506121531 | 10 | 35 | 3.2 | 8.0 | 0.00 | 0.00 | 0.00 | 89 | 1014.1 |
| 20260506121115 | 11 | 35 | 4.8 | 9.7 | 0.00 | 0.00 | 0.00 | 89 | 1013.9 |
| 20260506120554 | 11 | 55 | 1.6 | 3.2 | 0.00 | 0.00 | 0.00 | 89 | 1014.0 |
| 20260506120056 | 11 | 32 | 3.2 | 8.0 | 0.00 | 0.00 | 0.00 | 88 | 1014.1 |
| 20260506115535 | 11 | 40 | 1.6 | 4.8 | 0.00 | 0.00 | 0.00 | 88 | 1014.1 |
| 20260506115034 | 11 | 37 | 3.2 | 8.0 | 0.00 | 0.00 | 0.00 | 88 | 1014.1 |
| 20260506114523 | 11 | 22 | 4.8 | 9.7 | 0.00 | 0.00 | 0.00 | 87 | 1013.9 |
| 20260506114050 | 11 | 28 | 6.4 | 12.9 | 0.00 | 0.00 | 0.00 | 86 | 1013.8 |
| 20260506113534 | 11 | 19 | 3.2 | 8.0 | 0.00 | 0.00 | 0.00 | 85 | 1013.7 |
| 20260506113035 | 11 | 34 | 3.2 | 8.0 | 0.00 | 0.00 | 0.00 | 85 | 1013.6 |
| 20260506112534 | 11 | 19 | 4.8 | 9.7 | 0.00 | 0.00 | 0.00 | 84 | 1013.4 |
| 20260506112039 | 11 | 36 | 4.8 | 8.0 | 0.00 | 0.00 | 0.00 | 84 | 1013.3 |
| 20260506111603 | 11 | 40 | 3.2 | 8.0 | 0.00 | 0.00 | 0.00 | 83 | 1013.1 |
| 20260506111102 | 12 | 39 | 3.2 | 8.0 | 0.00 | 0.00 | 0.00 | 82 | 1013.2 |
| 20260506110534 | 12 | 29 | 3.2 | 8.0 | 0.00 | 0.00 | 0.00 | 82 | 1012.9 |
| 20260506110055 | 12 | 38 | 3.2 | 9.7 | 0.00 | 0.00 | 0.00 | 81 | 1012.7 |
| 20260506105534 | 12 | 39 | 3.2 | 8.0 | 0.00 | 0.00 | 0.00 | 81 | 1012.8 |
| 20260506105034 | 12 | 34 | 3.2 | 8.0 | 0.00 | 0.00 | 0.00 | 81 | 1012.7 |
| 20260506104523 | 12 | 43 | 3.2 | 8.0 | 0.00 | 0.00 | 0.00 | 81 | 1012.7 |
| 20260506104050 | 12 | 57 | 3.2 | 9.7 | 0.00 | 0.00 | 0.00 | 81 | 1012.7 |
| 20260506103534 | 12 | 52 | 3.2 | 4.8 | 0.00 | 0.00 | 0.00 | 81 | 1012.6 |
| 20260506103055 | 12 | 39 | 4.8 | 11.3 | 0.00 | 0.00 | 0.00 | 80 | 1012.6 |
| 20260506102534 | 12 | 33 | 3.2 | 9.7 | 0.00 | 0.00 | 0.00 | 80 | 1012.5 |
| 20260506102019 | 12 | 51 | 6.4 | 11.3 | 0.00 | 0.00 | 0.00 | 80 | 1012.4 |
| 20260506101535 | 12 | 57 | 1.6 | 4.8 | 0.00 | 0.00 | 0.00 | 81 | 1012.4 |
| 20260506101035 | 12 | 41 | 3.2 | 4.8 | 0.00 | 0.00 | 0.00 | 80 | 1012.2 |
| 20260506100534 | 12 | 38 | 3.2 | 4.8 | 0.00 | 0.00 | 0.00 | 80 | 1012.1 |
| 20260506100034 | 12 | 35 | 3.2 | 8.0 | 0.00 | 0.00 | 0.00 | 80 | 1012.1 |
| 20260506095654 | 12 | 28 | 3.2 | 8.0 | 0.00 | 0.00 | 0.00 | 80 | 1012.1 |
| 20260506095058 | 12 | 38 | 3.2 | 8.0 | 0.00 | 0.00 | 0.00 | 80 | 1012.0 |
| 20260506094535 | 13 | 41 | 3.2 | 8.0 | 0.00 | 0.00 | 0.00 | 80 | 1011.9 |
| 20260506094034 | 13 | 26 | 3.2 | 8.0 | 0.00 | 0.00 | 0.00 | 81 | 1011.8 |
| 20260506093554 | 13 | 48 | 3.2 | 3.2 | 0.00 | 0.00 | 0.00 | 81 | 1011.6 |
| 20260506093035 | 13 | 56 | 1.6 | 4.8 | 0.00 | 0.00 | 0.00 | 81 | 1011.9 |
| 20260506092535 | 13 | 21 | 3.2 | 4.8 | 0.00 | 0.00 | 0.00 | 81 | 1011.8 |
| 20260506092019 | 13 | 45 | 3.2 | 4.8 | 0.00 | 0.00 | 0.00 | 81 | 1011.5 |
| 20260506091603 | 13 | 48 | 1.6 | 4.8 | 0.00 | 0.00 | 0.00 | 81 | 1011.3 |
| 20260506091035 | 13 | 29 | 3.2 | 8.0 | 0.00 | 0.00 | 0.00 | 81 | 1011.5 |
| 20260506090534 | 13 | 38 | 3.2 | 8.0 | 0.00 | 0.00 | 0.00 | 81 | 1011.6 |
| 20260506090035 | 13 | 36 | 3.2 | 8.0 | 0.00 | 0.00 | 0.00 | 81 | 1011.6 |
| 20260506085618 | 13 | 52 | 1.6 | 4.8 | 0.00 | 0.00 | 0.00 | 81 | 1011.4 |
| 20260506085058 | 13 | 3 | 1.6 | 8.0 | 0.00 | 0.00 | 0.00 | 81 | 1011.3 |
| 20260506084539 | 13 | 17 | 1.6 | 4.8 | 0.00 | 0.00 | 0.00 | 81 | 1011.4 |
| 20260506084034 | 13 | 43 | 3.2 | 4.8 | 0.00 | 0.00 | 0.00 | 82 | 1011.2 |
| 20260506083534 | 13 | 39 | 3.2 | 8.0 | 0.00 | 0.00 | 0.00 | 81 | 1011.3 |
| 20260506083055 | 13 | 47 | 3.2 | 8.0 | 0.00 | 0.00 | 0.00 | 81 | 1011.1 |
| 20260506082523 | 13 | 41 | 3.2 | 4.8 | 0.00 | 0.00 | 0.00 | 81 | 1011.2 |
| 20260506082106 | 13 | 44 | 3.2 | 4.8 | 0.00 | 0.00 | 0.00 | 81 | 1011.1 |
| 20260506081547 | 13 | 52 | 3.2 | 4.8 | 0.00 | 0.00 | 0.00 | 81 | 1011.4 |
| 20260506081034 | 13 | 27 | 3.2 | 4.8 | 0.00 | 0.00 | 0.00 | 81 | 1011.3 |
| 20260506080534 | 13 | 41 | 3.2 | 4.8 | 0.00 | 0.00 | 0.00 | 81 | 1011.1 |
| 20260506073035 | 13 | 45 | 1.6 | 4.8 | 0.00 | 0.00 | 0.00 | 83 | 1011.3 |
| 20260506072534 | 13 | 62 | 1.6 | 3.2 | 0.00 | 0.00 | 0.00 | 83 | 1011.1 |
| 20260506072019 | 13 | 306 | 0.0 | 3.2 | 0.00 | 0.00 | 0.00 | 83 | 1011.1 |
| 20260506071603 | 13 | 67 | 1.6 | 1.6 | 0.00 | 0.00 | 0.00 | 83 | 1011.0 |
| 20260506071035 | 13 | 47 | 3.2 | 9.7 | 0.00 | 0.00 | 0.00 | 83 | 1010.7 |
| 20260506070534 | 13 | 54 | 3.2 | 8.0 | 0.00 | 0.00 | 0.00 | 83 | 1010.6 |
| 20260506062034 | 14 | 39 | 3.2 | 9.7 | 0.00 | 0.00 | 0.00 | 82 | 1011.0 |
| 20260506061618 | 14 | 40 | 1.6 | 4.8 | 0.00 | 0.00 | 0.00 | 83 | 1010.9 |
| 20260506061042 | 14 | 20 | 3.2 | 9.7 | 0.00 | 0.00 | 0.00 | 83 | 1010.8 |
| 20260506060534 | 14 | 40 | 3.2 | 3.2 | 0.00 | 0.00 | 0.00 | 84 | 1010.6 |
| 20260506051034 | 15 | 50 | 3.2 | 4.8 | 0.00 | 0.00 | 0.00 | 84 | 1011.0 |
| 20260506050534 | 15 | 46 | 3.2 | 8.0 | 0.00 | 0.00 | 0.00 | 84 | 1011.0 |
| 20260506045034 | 15 | 53 | 4.8 | 9.7 | 0.00 | 0.00 | 0.00 | 83 | 1011.1 |
| 20260506044534 | 15 | 22 | 4.8 | 11.3 | 0.00 | 0.00 | 0.00 | 83 | 1010.8 |
| 20260506044034 | 15 | 31 | 4.8 | 11.3 | 0.00 | 0.00 | 0.00 | 83 | 1010.8 |
| 20260506043534 | 15 | 28 | 4.8 | 9.7 | 0.00 | 0.00 | 0.00 | 83 | 1010.7 |
| 20260506043034 | 15 | 50 | 3.2 | 8.0 | 0.00 | 0.00 | 0.00 | 83 | 1010.6 |
| 20260506042534 | 15 | 36 | 3.2 | 8.0 | 0.00 | 0.00 | 0.00 | 83 | 1010.7 |
| 20260506042034 | 16 | 30 | 3.2 | 9.7 | 0.00 | 0.00 | 0.00 | 83 | 1010.7 |
| 20260506041639 | 16 | 33 | 3.2 | 8.0 | 0.00 | 0.00 | 0.00 | 83 | 1010.9 |
| 20260506041119 | 16 | 50 | 1.6 | 4.8 | 0.00 | 0.00 | 0.00 | 82 | 1010.8 |
| 20260506040539 | 16 | 39 | 3.2 | 8.0 | 0.00 | 0.00 | 0.00 | 82 | 1010.7 |
| 20260506040055 | 16 | 30 | 4.8 | 9.7 | 0.00 | 0.00 | 0.00 | 82 | 1010.9 |
| 20260506035535 | 16 | 38 | 3.2 | 4.8 | 0.00 | 0.00 | 0.00 | 82 | 1010.7 |
| 20260506035034 | 16 | 26 | 4.8 | 11.3 | 0.00 | 0.00 | 0.00 | 82 | 1010.8 |
| 20260506034534 | 16 | 33 | 4.8 | 9.7 | 0.00 | 0.00 | 0.00 | 82 | 1010.6 |
| 20260506034034 | 16 | 26 | 4.8 | 9.7 | 0.00 | 0.00 | 0.00 | 82 | 1010.4 |
| 20260506033534 | 16 | 38 | 4.8 | 9.7 | 0.00 | 0.00 | 0.00 | 82 | 1010.6 |
| 20260506033035 | 16 | 28 | 6.4 | 12.9 | 0.00 | 0.00 | 0.00 | 82 | 1010.5 |
| 20260506032533 | 17 | 42 | 4.8 | 11.3 | 0.00 | 0.00 | 0.00 | 82 | 1010.3 |
| 20260506032033 | 17 | 44 | 4.8 | 9.7 | 0.00 | 0.00 | 0.00 | 81 | 1010.0 |
| 20260506031532 | 17 | 53 | 4.8 | 11.3 | 0.00 | 0.00 | 0.00 | 81 | 1009.7 |
| 20260506031114 | 17 | 18 | 4.8 | 11.3 | 0.00 | 0.00 | 0.00 | 80 | 1009.4 |
| 20260506030554 | 17 | 30 | 3.2 | 8.0 | 0.00 | 0.00 | 0.00 | 80 | 1009.5 |
| 20260506030035 | 17 | 37 | 3.2 | 8.0 | 0.00 | 0.00 | 0.00 | 80 | 1009.5 |
| 20260506025533 | 17 | 35 | 4.8 | 9.7 | 0.00 | 0.00 | 0.00 | 80 | 1009.5 |
| 20260506025053 | 17 | 21 | 3.2 | 9.7 | 0.00 | 0.00 | 0.00 | 80 | 1009.5 |
| 20260506024534 | 18 | 41 | 3.2 | 4.8 | 0.00 | 0.00 | 0.00 | 80 | 1009.3 |
| 20260506024039 | 18 | 43 | 1.6 | 8.0 | 0.00 | 0.00 | 0.00 | 79 | 1009.3 |
| 20260506023607 | 18 | 28 | 4.8 | 11.3 | 0.00 | 0.00 | 0.00 | 79 | 1009.1 |
| 20260506023034 | 18 | 56 | 4.8 | 9.7 | 0.00 | 0.00 | 0.00 | 80 | 1009.0 |
| 20260506022534 | 18 | 32 | 3.2 | 4.8 | 0.00 | 0.00 | 0.00 | 80 | 1009.1 |
| 20260506022034 | 18 | 32 | 1.6 | 4.8 | 0.00 | 0.00 | 0.00 | 80 | 1009.0 |
| 20260506021614 | 18 | 50 | 3.2 | 8.0 | 0.00 | 0.00 | 0.00 | 79 | 1009.1 |
| 20260506021034 | 18 | 49 | 1.6 | 4.8 | 0.00 | 0.00 | 0.00 | 79 | 1008.8 |
| 20260506020533 | 18 | 64 | 0.0 | 3.2 | 0.00 | 0.00 | 0.00 | 79 | 1008.7 |
| 20260506020035 | 18 | 50 | 1.6 | 3.2 | 0.00 | 0.00 | 0.00 | 79 | 1008.7 |
| 20260506015531 | 18 | 76 | 0.0 | 3.2 | 0.00 | 0.00 | 0.00 | 79 | 1008.5 |
| 20260506015114 | 18 | 47 | 1.6 | 3.2 | 0.00 | 0.00 | 0.00 | 79 | 1008.3 |
| 20260506014554 | 18 | 53 | 3.2 | 8.0 | 0.00 | 0.00 | 0.00 | 78 | 1008.1 |
| 20260506014036 | 18 | 70 | 1.6 | 3.2 | 0.00 | 0.00 | 0.00 | 78 | 1007.9 |
| 20260506013534 | 18 | 40 | 1.6 | 3.2 | 0.00 | 0.00 | 0.00 | 78 | 1008.0 |
| 20260506013034 | 18 | 49 | 3.2 | 4.8 | 0.00 | 0.00 | 0.00 | 77 | 1007.8 |
| 20260506012655 | 19 | 40 | 3.2 | 4.8 | 0.00 | 0.00 | 0.00 | 77 | 1007.6 |
| 20260506012019 | 19 | 32 | 3.2 | 8.0 | 0.00 | 0.00 | 0.00 | 77 | 1007.7 |
| 20260506011603 | 19 | 60 | 3.2 | 8.0 | 0.00 | 0.00 | 0.00 | 77 | 1007.4 |
| 20260506011104 | 19 | 26 | 4.8 | 8.0 | 0.00 | 0.00 | 0.00 | 77 | 1007.0 |
| 20260506010533 | 20 | 54 | 3.2 | 4.8 | 0.00 | 0.00 | 0.00 | 77 | 1007.2 |
| 20260506010034 | 20 | 42 | 1.6 | 8.0 | 0.00 | 0.00 | 0.00 | 76 | 1006.9 |
| 20260506005533 | 20 | 74 | 1.6 | 4.8 | 0.00 | 0.00 | 0.00 | 76 | 1006.8 |
| 20260506005054 | 20 | 58 | 3.2 | 9.7 | 0.00 | 0.00 | 0.00 | 75 | 1006.5 |
| 20260506004524 | 20 | 347 | 3.2 | 9.7 | 0.00 | 0.00 | 0.00 | 75 | 1006.6 |
| 20260506004050 | 20 | 56 | 1.6 | 4.8 | 0.00 | 0.00 | 0.00 | 75 | 1006.5 |
| 20260506003534 | 20 | 33 | 3.2 | 11.3 | 0.00 | 0.00 | 0.00 | 75 | 1006.7 |
| 20260506003035 | 21 | 38 | 4.8 | 12.9 | 0.00 | 0.00 | 0.00 | 74 | 1006.6 |
| 20260506002533 | 21 | 69 | 1.6 | 4.8 | 0.00 | 0.00 | 0.00 | 74 | 1006.4 |
| 20260506002054 | 21 | 17 | 3.2 | 8.0 | 0.00 | 0.00 | 0.00 | 74 | 1006.3 |
| 20260506001619 | 21 | 18 | 3.2 | 4.8 | 0.00 | 0.00 | 0.00 | 74 | 1006.5 |
| 20260506001059 | 21 | 28 | 3.2 | 8.0 | 0.00 | 0.00 | 0.00 | 74 | 1006.2 |
| 20260506000554 | 22 | 8 | 4.8 | 9.7 | 0.00 | 0.00 | 0.00 | 74 | 1006.3 |
| 20260506000053 | 22 | 28 | 3.2 | 8.0 | 0.00 | 0.00 | 0.00 | 73 | 1006.4 |
| 20260505235555 | 22 | 85 | 0.0 | 1.6 | 0.00 | 0.00 | 0.00 | 73 | 1006.4 |
| 20260505235054 | 22 | 53 | 3.2 | 8.0 | 0.00 | 0.00 | 0.00 | 72 | 1006.3 |
| 20260505234534 | 22 | 75 | 1.6 | 3.2 | 0.00 | 0.00 | 0.00 | 71 | 1006.2 |
| 20260505234033 | 23 | 57 | 1.6 | 4.8 | 0.00 | 0.00 | 0.00 | 71 | 1006.2 |
| 20260505233534 | 23 | 75 | 1.6 | 4.8 | 0.00 | 0.00 | 0.00 | 70 | 1006.2 |
| 20260505233034 | 23 | 36 | 1.6 | 3.2 | 0.00 | 0.00 | 0.00 | 70 | 1006.1 |
| 20260505232534 | 23 | 15 | 3.2 | 8.0 | 0.00 | 0.00 | 0.00 | 69 | 1006.0 |
| 20260505232053 | 23 | 42 | 1.6 | 4.8 | 0.00 | 0.00 | 0.00 | 69 | 1006.1 |
| 20260505231619 | 23 | 72 | 3.2 | 9.7 | 0.00 | 0.00 | 0.00 | 69 | 1005.9 |
| 20260505231058 | 23 | 40 | 3.2 | 9.7 | 0.00 | 0.00 | 0.00 | 68 | 1006.0 |
| 20260505230559 | 23 | 337 | 3.2 | 14.5 | 0.00 | 0.00 | 0.00 | 68 | 1005.9 |
| 20260505230034 | 24 | 72 | 3.2 | 8.0 | 0.00 | 0.00 | 0.00 | 67 | 1005.9 |
| 20260505225533 | 24 | 9 | 3.2 | 8.0 | 0.00 | 0.00 | 0.00 | 67 | 1005.8 |
| 20260505225033 | 24 | 21 | 3.2 | 4.8 | 0.00 | 0.00 | 0.00 | 67 | 1005.8 |
| 20260505224523 | 25 | 48 | 3.2 | 4.8 | 0.00 | 0.00 | 0.00 | 67 | 1006.0 |
| 20260505224147 | 25 | 26 | 3.2 | 8.0 | 0.00 | 0.00 | 0.00 | 65 | 1005.8 |
| 20260505223547 | 25 | 33 | 3.2 | 9.7 | 0.00 | 0.00 | 0.00 | 65 | 1005.5 |
| 20260505223034 | 25 | 67 | 1.6 | 4.8 | 0.00 | 0.00 | 0.00 | 65 | 1005.4 |
| 20260505222554 | 25 | 57 | 3.2 | 4.8 | 0.00 | 0.00 | 0.00 | 65 | 1005.6 |
| 20260505222034 | 26 | 46 | 3.2 | 9.7 | 0.00 | 0.00 | 0.00 | 64 | 1005.5 |
| 20260505221533 | 26 | 57 | 1.6 | 4.8 | 0.00 | 0.00 | 0.00 | 64 | 1005.3 |
| 20260505221135 | 26 | 106 | 1.6 | 3.2 | 0.00 | 0.00 | 0.00 | 64 | 1005.2 |
| 20260505220555 | 26 | 42 | 3.2 | 9.7 | 0.00 | 0.00 | 0.00 | 63 | 1005.3 |
| 20260505220115 | 26 | 60 | 1.6 | 4.8 | 0.00 | 0.00 | 0.00 | 64 | 1005.4 |
| 20260505215534 | 26 | 59 | 3.2 | 12.9 | 0.00 | 0.00 | 0.00 | 63 | 1005.4 |
| 20260505215033 | 27 | 40 | 3.2 | 8.0 | 0.00 | 0.00 | 0.00 | 63 | 1005.3 |
| 20260505214534 | 27 | 25 | 3.2 | 9.7 | 0.00 | 0.00 | 0.00 | 63 | 1005.1 |
| 20260505214020 | 27 | 18 | 3.2 | 4.8 | 0.00 | 0.00 | 0.00 | 63 | 1005.1 |
| 20260505213607 | 28 | 45 | 3.2 | 4.8 | 0.00 | 0.00 | 0.00 | 61 | 1005.3 |
| 20260505213033 | 28 | 180 | 3.2 | 4.8 | 0.00 | 0.00 | 0.00 | 59 | 1005.3 |
| 20260505212554 | 29 | 59 | 3.2 | 9.7 | 0.00 | 0.00 | 0.00 | 55 | 1005.1 |
| 20260505212034 | 30 | 52 | 3.2 | 8.0 | 0.00 | 0.00 | 0.00 | 51 | 1005.2 |
| 20260505211533 | 30 | 76 | 1.6 | 3.2 | 0.00 | 0.00 | 0.00 | 50 | 1005.0 |
| 20260505211115 | 30 | 14 | 1.6 | 4.8 | 0.00 | 0.00 | 0.00 | 51 | 1005.1 |
| 20260505210715 | 29 | 55 | 3.2 | 8.0 | 0.00 | 0.00 | 0.00 | 49 | 1005.1 |
| 20260505210035 | 29 | 345 | 1.6 | 9.7 | 0.00 | 0.00 | 0.00 | 48 | 1005.3 |
| 20260505205533 | 29 | 321 | 3.2 | 9.7 | 0.00 | 0.00 | 0.00 | 48 | 1005.4 |
| 20260505205034 | 29 | 41 | 3.2 | 4.8 | 0.00 | 0.00 | 0.00 | 49 | 1005.3 |
| 20260505204533 | 29 | 258 | 4.8 | 16.1 | 0.00 | 0.00 | 0.00 | 49 | 1005.3 |
| 20260505204033 | 29 | 104 | 4.8 | 9.7 | 0.00 | 0.00 | 0.00 | 49 | 1005.4 |
| 20260505203554 | 30 | 274 | 6.4 | 16.1 | 0.00 | 0.00 | 0.00 | 47 | 1005.3 |
| 20260505203033 | 30 | 351 | 4.8 | 11.3 | 0.00 | 0.00 | 0.00 | 49 | 1005.3 |
| 20260505202554 | 32 | 45 | 4.8 | 12.9 | 0.00 | 0.00 | 0.00 | 49 | 1005.2 |
| 20260505202020 | 32 | 191 | 3.2 | 4.8 | 0.00 | 0.00 | 0.00 | 53 | 1005.0 |
| 20260505201603 | 32 | 127 | 1.6 | 3.2 | 0.00 | 0.00 | 0.00 | 57 | 1005.1 |
| 20260505201043 | 32 | 117 | 1.6 | 3.2 | 0.00 | 0.00 | 0.00 | 58 | 1005.2 |
| 20260505200533 | 31 | 117 | 0.0 | 1.6 | 0.00 | 0.00 | 0.00 | 59 | 1005.2 |
| 20260505200034 | 31 | 126 | 1.6 | 8.0 | 0.00 | 0.00 | 0.00 | 59 | 1005.3 |
| 20260505195534 | 31 | 144 | 3.2 | 3.2 | 0.00 | 0.00 | 0.00 | 59 | 1005.3 |
| 20260505195034 | 31 | 130 | 1.6 | 3.2 | 0.00 | 0.00 | 0.00 | 60 | 1005.3 |
| 20260505194533 | 31 | 132 | 1.6 | 3.2 | 0.00 | 0.00 | 0.00 | 60 | 1005.3 |
| 20260505194033 | 31 | 146 | 1.6 | 4.8 | 0.00 | 0.00 | 0.00 | 59 | 1005.4 |
| 20260505193534 | 31 | 123 | 1.6 | 3.2 | 0.00 | 0.00 | 0.00 | 60 | 1005.3 |
| 20260505193028 | 31 | 118 | 1.6 | 4.8 | 0.00 | 0.00 | 0.00 | 60 | 1005.5 |
| 20260505192611 | 31 | 156 | 1.6 | 3.2 | 0.00 | 0.00 | 0.00 | 60 | 1005.4 |
| 20260505192051 | 31 | 158 | 1.6 | 4.8 | 0.00 | 0.00 | 0.00 | 61 | 1005.4 |
| 20260505191535 | 31 | 147 | 1.6 | 3.2 | 0.00 | 0.00 | 0.00 | 60 | 1005.3 |
| 20260505191054 | 31 | 154 | 1.6 | 8.0 | 0.00 | 0.00 | 0.00 | 61 | 1005.2 |
| 20260505190533 | 31 | 166 | 3.2 | 4.8 | 0.00 | 0.00 | 0.00 | 61 | 1005.3 |
| 20260505190054 | 31 | 102 | 1.6 | 4.8 | 0.00 | 0.00 | 0.00 | 62 | 1005.2 |
| 20260505185533 | 31 | 185 | 1.6 | 4.8 | 0.00 | 0.00 | 0.00 | 62 | 1005.2 |
| 20260505185034 | 31 | 100 | 1.6 | 3.2 | 0.00 | 0.00 | 0.00 | 63 | 1005.3 |
| 20260505184555 | 30 | 154 | 1.6 | 3.2 | 0.00 | 0.00 | 0.00 | 63 | 1005.3 |
| 20260505184053 | 30 | 192 | 3.2 | 4.8 | 0.00 | 0.00 | 0.00 | 62 | 1005.2 |
| 20260505183619 | 30 | 157 | 3.2 | 4.8 | 0.00 | 0.00 | 0.00 | 64 | 1005.2 |
| 20260505183059 | 29 | 127 | 1.6 | 3.2 | 0.00 | 0.00 | 0.00 | 65 | 1005.4 |
| 20260505182539 | 28 | 129 | 3.2 | 4.8 | 0.00 | 0.00 | 0.00 | 66 | 1005.4 |
| 20260505182033 | 29 | 134 | 3.2 | 4.8 | 0.00 | 0.00 | 0.00 | 66 | 1005.6 |
| 20260505181554 | 28 | 136 | 1.6 | 3.2 | 0.00 | 0.00 | 0.00 | 66 | 1005.5 |
| 20260505181033 | 28 | 150 | 1.6 | 4.8 | 0.00 | 0.00 | 0.00 | 65 | 1005.5 |
| 20260505180534 | 28 | 150 | 1.6 | 4.8 | 0.00 | 0.00 | 0.00 | 65 | 1005.5 |
| 20260505180021 | 29 | 144 | 1.6 | 4.8 | 0.00 | 0.00 | 0.00 | 66 | 1005.5 |
| 20260505175603 | 28 | 135 | 3.2 | 3.2 | 0.00 | 0.00 | 0.00 | 65 | 1005.6 |
| 20260505175043 | 28 | 177 | 3.2 | 9.7 | 0.00 | 0.00 | 0.00 | 64 | 1005.6 |
| 20260505174535 | 29 | 209 | 3.2 | 8.0 | 0.00 | 0.00 | 0.00 | 64 | 1005.5 |
| 20260505174034 | 29 | 178 | 3.2 | 9.7 | 0.00 | 0.00 | 0.00 | 64 | 1005.4 |
| 20260505173639 | 30 | 166 | 3.2 | 4.8 | 0.00 | 0.00 | 0.00 | 65 | 1005.4 |
| 20260505173059 | 30 | 132 | 1.6 | 1.6 | 0.00 | 0.00 | 0.00 | 66 | 1005.4 |
| 20260505172533 | 29 | 94 | 1.6 | 3.2 | 0.00 | 0.00 | 0.00 | 67 | 1005.3 |
| 20260505172034 | 28 | 211 | 3.2 | 8.0 | 0.00 | 0.00 | 0.00 | 67 | 1005.3 |
| 20260505171533 | 28 | 137 | 3.2 | 4.8 | 0.00 | 0.00 | 0.00 | 69 | 1005.2 |
| 20260505171033 | 28 | 115 | 1.6 | 3.2 | 0.00 | 0.00 | 0.00 | 71 | 1005.3 |
| 20260505170533 | 27 | 157 | 1.6 | 3.2 | 0.00 | 0.00 | 0.00 | 72 | 1005.3 |
| 20260505170033 | 27 | 117 | 1.6 | 4.8 | 0.00 | 0.00 | 0.00 | 73 | 1005.2 |
| 20260505165533 | 27 | 129 | 3.2 | 3.2 | 0.00 | 0.00 | 0.00 | 74 | 1005.3 |
| 20260505165027 | 27 | 136 | 1.6 | 3.2 | 0.00 | 0.00 | 0.00 | 74 | 1005.5 |
| 20260505164555 | 26 | 135 | 1.6 | 4.8 | 0.00 | 0.00 | 0.00 | 75 | 1005.4 |
| 20260505164034 | 26 | 143 | 3.2 | 4.8 | 0.00 | 0.00 | 0.00 | 75 | 1005.6 |
| 20260505163534 | 26 | 133 | 1.6 | 3.2 | 0.00 | 0.00 | 0.00 | 77 | 1005.4 |
| 20260505163055 | 26 | 124 | 1.6 | 3.2 | 0.00 | 0.00 | 0.00 | 76 | 1005.4 |
| 20260505162533 | 26 | 142 | 1.6 | 3.2 | 0.00 | 0.00 | 0.00 | 77 | 1005.4 |
| 20260505162034 | 26 | 111 | 1.6 | 4.8 | 0.00 | 0.00 | 0.00 | 77 | 1005.4 |
| 20260505161534 | 26 | 168 | 1.6 | 4.8 | 0.00 | 0.00 | 0.00 | 77 | 1005.3 |
| 20260505161033 | 26 | 109 | 1.6 | 8.0 | 0.00 | 0.00 | 0.00 | 78 | 1005.2 |
| 20260505160554 | 25 | 150 | 1.6 | 3.2 | 0.00 | 0.00 | 0.00 | 78 | 1005.2 |
| 20260505153028 | 24 | 137 | 1.6 | 3.2 | 0.00 | 0.00 | 0.00 | 81 | 1005.3 |
| 20260505152611 | 23 | 147 | 3.2 | 4.8 | 0.00 | 0.00 | 0.00 | 82 | 1005.0 |
| 20260505152051 | 23 | 171 | 3.2 | 4.8 | 0.00 | 0.00 | 0.00 | 81 | 1005.1 |
| 20260505151535 | 23 | 146 | 3.2 | 4.8 | 0.00 | 0.00 | 0.00 | 81 | 1005.2 |
| 20260505151034 | 24 | 137 | 1.6 | 4.8 | 0.00 | 0.00 | 0.00 | 80 | 1005.2 |
| 20260505150533 | 24 | 160 | 3.2 | 4.8 | 0.00 | 0.00 | 0.00 | 80 | 1005.1 |
| 20260505140533 | 22 | 137 | 3.2 | 4.8 | 0.00 | 0.00 | 0.00 | 85 | 1004.9 |
| 20260505130108 | 21 | 134 | 1.6 | 3.2 | 0.00 | 0.00 | 0.00 | 89 | 1004.5 |
| 20260505125033 | 21 | 110 | 1.6 | 4.8 | 0.00 | 0.00 | 0.00 | 89 | 1004.6 |